Chariton, IA

1:14 AM CDT on March 24, 2017 (GMT -0500)
Chariton Municipal

Weather History for KCNC - November, 2011

Change the Weather History Date:

Tuesday, November 15, 2011

  Actual Average Record
Temperature  
Mean Temperature 47 °F -  
Max Temperature 59 °F 50 °F 76 °F (1950)
Min Temperature 35 °F 29 °F 3 °F (1959)
Degree Days  
Heating Degree Days 18    
Moisture  
Dew Point 27 °F    
Average Humidity 51    
Maximum Humidity 75    
Minimum Humidity 24    
Precipitation  
Precipitation 0.00 in - - ()
Sea Level Pressure  
Sea Level Pressure 29.77 in    
Wind  
Wind Speed 9 mph (West)    
Max Wind Speed 15 mph    
Max Gust Speed 18 mph    
Visibility 10 miles    
Events      
Averages and records for this station are not official NWS values.
T = Trace of Precipitation, MM = Missing Value Source: NWS Daily Summary

Daily Weather History Graph

Daily Weather History Graph

Search for Another Location

Airport or City:

Trip Planner

Search our weather history database for the weather conditions in past years. The results will help you decide how hot, cold, wet, or windy it might be!

Date:

Astronomy

Nov. 15, 2011 Rise Set
Actual Time 7:00 AM CST 4:54 PM CST
Civil Twilight 6:31 AM CST 5:24 PM CST
Nautical Twilight 5:57 AM CST 5:57 PM CST
Astronomical Twilight 5:25 AM CST 6:30 PM CST
Moon 9:04 PM CST (11/15) 11:00 AM CST (11/15)
Length of Visible Light 10h 53m
Length of Day
9h 54m
Waning Gibbous, 79% of the Moon is Illuminated
Nov 15
Waning Gibbous
Nov 18
Last Quarter
Nov 25
New
Dec 2
First Quarter
Dec 10
Full

Hourly Weather History & Observations

Time (CST) Temp. Windchill Dew Point Humidity Pressure Visibility Wind Dir Wind Speed Gust Speed Precip Events Conditions
12:15 AM 39.2 °F 33.6 °F 28.4 °F 65% 29.73 in 10.0 mi SSW 8.1 mph - N/A   Clear
12:35 AM 37.4 °F 32.1 °F 28.4 °F 70% 29.73 in 10.0 mi South 6.9 mph - N/A   Clear
12:36 AM 37.4 °F 32.1 °F 28.4 °F 70% 29.73 in 10.0 mi South 6.9 mph - N/A   Clear
12:55 AM 37.4 °F 31.4 °F 28.4 °F 70% 29.72 in 10.0 mi South 8.1 mph - N/A   Clear
1:15 AM 37.4 °F 31.4 °F 28.4 °F 70% 29.70 in 10.0 mi SSE 8.1 mph - N/A   Clear
1:35 AM 37.4 °F 32.1 °F 28.4 °F 70% 29.69 in 10.0 mi SE 6.9 mph - N/A   Clear
1:55 AM 37.4 °F 32.8 °F 28.4 °F 70% 29.70 in 10.0 mi South 5.8 mph - N/A   Clear
2:15 AM 37.4 °F 32.8 °F 28.4 °F 70% 29.70 in 10.0 mi South 5.8 mph - N/A   Clear
2:17 AM 37.4 °F 32.8 °F 28.4 °F 70% 29.70 in 10.0 mi South 5.8 mph - N/A   Clear
2:35 AM 35.6 °F 30.7 °F 28.4 °F 75% 29.70 in 10.0 mi SSE 5.8 mph - N/A   Clear
2:55 AM 37.4 °F 31.4 °F 28.4 °F 70% 29.69 in 10.0 mi SSE 8.1 mph - N/A   Clear
3:15 AM 37.4 °F 31.4 °F 28.4 °F 70% 29.70 in 10.0 mi South 8.1 mph - N/A   Clear
3:35 AM 37.4 °F 32.8 °F 28.4 °F 70% 29.69 in 10.0 mi South 5.8 mph - N/A   Clear
3:55 AM 39.2 °F 32.0 °F 30.2 °F 70% 29.68 in 10.0 mi SSE 11.5 mph - N/A   Clear
4:35 AM 37.4 °F 33.8 °F 28.4 °F 70% 29.71 in 10.0 mi SSW 4.6 mph - N/A   Clear
4:55 AM 35.6 °F 29.2 °F 26.6 °F 70% 29.70 in 10.0 mi South 8.1 mph - N/A   Clear
5:15 AM 35.6 °F 27.5 °F 28.4 °F 75% 29.69 in 10.0 mi South 11.5 mph - N/A   Scattered Clouds
5:35 AM 37.4 °F 30.8 °F 28.4 °F 70% 29.70 in 10.0 mi South 9.2 mph - N/A   Scattered Clouds
5:55 AM 37.4 °F 30.8 °F 28.4 °F 70% 29.69 in 10.0 mi South 9.2 mph - N/A   Clear
7:15 AM 37.4 °F 30.8 °F 28.4 °F 70% 29.69 in 10.0 mi South 9.2 mph - N/A   Clear
7:35 AM 37.4 °F 32.8 °F 28.4 °F 70% 29.71 in 10.0 mi SSW 5.8 mph - N/A   Clear
7:55 AM 37.4 °F 32.8 °F 28.4 °F 70% 29.71 in 10.0 mi South 5.8 mph - N/A   Clear
8:15 AM 39.2 °F 33.0 °F 30.2 °F 70% 29.71 in 10.0 mi South 9.2 mph - N/A   Clear
9:15 AM 46.4 °F 42.4 °F 32.0 °F 57% 29.72 in 10.0 mi SSW 8.1 mph - N/A   Clear
9:35 AM 48.2 °F - 32.0 °F 54% 29.73 in 10.0 mi SSW 9.2 mph - N/A   Clear
9:55 AM 51.8 °F - 30.2 °F 44% 29.73 in 10.0 mi SW 6.9 mph - N/A   Clear
10:15 AM 51.8 °F - 30.2 °F 44% 29.74 in 10.0 mi SW 8.1 mph - N/A   Clear
10:35 AM 53.6 °F - 32.0 °F 44% 29.75 in 10.0 mi SW 9.2 mph - N/A   Clear
10:55 AM 53.6 °F - 33.8 °F 47% 29.75 in 10.0 mi SSW 6.9 mph - N/A   Clear
11:15 AM 55.4 °F - 30.2 °F 38% 29.76 in 10.0 mi West 5.8 mph - N/A   Clear
11:35 AM 55.4 °F - 30.2 °F 38% 29.75 in 10.0 mi West 9.2 mph - N/A   Clear
11:55 AM 55.4 °F - 30.2 °F 38% 29.76 in 10.0 mi WNW 8.1 mph - N/A   Clear
12:15 PM 55.4 °F - 30.2 °F 38% 29.75 in 10.0 mi NW 10.4 mph - N/A   Clear
12:35 PM 55.4 °F - 30.2 °F 38% 29.74 in 10.0 mi NNW 10.4 mph - N/A   Clear
12:55 PM 57.2 °F - 30.2 °F 36% 29.75 in 10.0 mi NW 9.2 mph - N/A   Clear
1:15 PM 57.2 °F - 30.2 °F 36% 29.74 in 10.0 mi NW 8.1 mph - N/A   Clear
1:35 PM 57.2 °F - 28.4 °F 33% 29.74 in 10.0 mi North 9.2 mph - N/A   Clear
1:55 PM 57.2 °F - 24.8 °F 29% 29.75 in 10.0 mi NW 9.2 mph - N/A   Clear
2:15 PM 59.0 °F - 24.8 °F 27% 29.75 in 10.0 mi NNW 11.5 mph - N/A   Clear
2:35 PM 57.2 °F - 23.0 °F 27% 29.76 in 10.0 mi NNW 12.7 mph - N/A   Clear
2:55 PM 57.2 °F - 26.6 °F 31% 29.77 in 10.0 mi NNW 8.1 mph - N/A   Clear
3:15 PM 57.2 °F - 24.8 °F 29% 29.77 in 10.0 mi NNW 10.4 mph - N/A   Clear
3:35 PM 57.2 °F - 24.8 °F 29% 29.78 in 10.0 mi NNW 12.7 mph - N/A   Clear
3:55 PM 55.4 °F - 23.0 °F 29% 29.79 in 10.0 mi NNW 13.8 mph 17.3 mph N/A   Clear
4:15 PM 55.4 °F - 21.2 °F 26% 29.80 in 10.0 mi NW 10.4 mph - N/A   Clear
4:35 PM 53.6 °F - 17.6 °F 24% 29.82 in 10.0 mi NNW 8.1 mph - N/A   Clear
4:55 PM 51.8 °F - 15.8 °F 24% 29.83 in 10.0 mi NNW 13.8 mph - N/A   Clear
5:15 PM 50.0 °F - 19.4 °F 30% 29.85 in 10.0 mi NNW 11.5 mph 17.3 mph N/A   Clear
5:35 PM 48.2 °F - 21.2 °F 34% 29.86 in 10.0 mi NW 9.2 mph - N/A   Clear
5:55 PM 46.4 °F 41.9 °F 24.8 °F 43% 29.87 in 10.0 mi NW 9.2 mph - N/A   Clear
6:15 PM 46.4 °F 41.5 °F 24.8 °F 43% 29.89 in 10.0 mi NW 10.4 mph - N/A   Clear
6:35 PM 44.6 °F 38.8 °F 26.6 °F 49% 29.90 in 10.0 mi NW 11.5 mph 18.4 mph N/A   Clear
6:55 PM 44.6 °F 39.2 °F 26.6 °F 49% 29.92 in 10.0 mi NW 10.4 mph - N/A   Clear
7:15 PM 42.8 °F 37.5 °F 26.6 °F 53% 29.93 in 10.0 mi NW 9.2 mph - N/A   Clear
7:35 PM 44.6 °F 38.4 °F 24.8 °F 46% 29.94 in 10.0 mi NW 12.7 mph - N/A   Clear
7:55 PM 44.6 °F 38.1 °F 24.8 °F 46% 29.95 in 10.0 mi NW 13.8 mph - N/A   Clear
8:15 PM 44.6 °F 38.1 °F 23.0 °F 43% 29.96 in 10.0 mi NW 13.8 mph - N/A   Clear
8:35 PM 42.8 °F 35.4 °F 21.2 °F 42% 29.98 in 10.0 mi NW 15.0 mph - N/A   Clear
8:55 PM 42.8 °F 35.4 °F 21.2 °F 42% 29.98 in 10.0 mi NNW 15.0 mph - N/A   Clear
9:15 PM 41.0 °F 34.3 °F 21.2 °F 45% 30.00 in 10.0 mi NNW 11.5 mph - N/A   Clear
9:35 PM 39.2 °F 32.0 °F 21.2 °F 49% 30.00 in 10.0 mi NW 11.5 mph - N/A   Clear
9:55 PM 39.2 °F 31.2 °F 21.2 °F 49% 30.02 in 10.0 mi NNW 13.8 mph 18.4 mph N/A   Clear
10:15 PM 39.2 °F 31.6 °F 19.4 °F 45% 30.02 in 10.0 mi NNW 12.7 mph - N/A   Clear
10:35 PM 37.4 °F 30.3 °F 19.4 °F 48% 30.03 in 10.0 mi NNW 10.4 mph - N/A   Clear
10:55 PM 35.6 °F 28.6 °F 19.4 °F 52% 30.03 in 10.0 mi NNW 9.2 mph - N/A   Clear
11:15 PM 35.6 °F 28.0 °F 19.4 °F 52% 30.03 in 10.0 mi NW 10.4 mph - N/A   Clear
11:35 PM 33.8 °F 27.0 °F 19.4 °F 56% 30.03 in 10.0 mi NW 8.1 mph - N/A   Clear
11:55 PM 33.8 °F 27.0 °F 19.4 °F 56% 30.04 in 10.0 mi NW 8.1 mph - N/A   Clear